Other Public Products
Issued by NWS Grand Forks, ND

Home | Current Version | Previous Version | Text Only | Print | Product List | Glossary On
Versions: 1 2 3 4 5 6 7 8 9 10 11 12 13 14 15 16 17 18 19 20 21 22 23 24 25 26 27 28 29 30 31 32 33 34 35 36 37 38 39 40 41 42 43 44 45 46 47 48 49 50
188
FPUS83 KFGF 221531
OPUFGF
PRAIRIE TO PINES WEATHER ROUNDUP
NATIONAL WEATHER SERVICE EASTERN NORTH DAKOTA/GRAND FORKS ND
1000 AM CDT FRI SEP 22 2017

 **SATELLITE DATA USED TO AUGMENT SKY COVER AT AUTOMATED STATIONS**
 *****  WEATHER ACROSS EASTERN NORTH DAKOTA  *****

CITY           SKY/WX    TMP DP  RH WIND       PRES   REMARKS
GRAND FORKS    CLOUDY    60  54  80 N18       29.80F
GRAND FORKS AF CLOUDY    57  50  79 N16G24    29.81F
GRAND CITY NWS NOT AVBL
BUXTON           N/A     43  54 100 N13         N/A
DEVILS LAKE    CLOUDY    54  44  69 NE15G22   29.84F
FARGO          FAIR      69  62  78 N10       29.72F
WAHPETON ARPT  FAIR      73  64  73 SE9       29.72F
$$

 *****  WEATHER ACROSS CENTRAL AND WESTERN NORTH DAKOTA  *****

CITY           SKY/WX    TMP DP  RH WIND       PRES   REMARKS
JAMESTOWN      CLOUDY    58  49  72 NE15G24   29.73F
BISMARCK       CLOUDY    56  43  61 NE18G30   29.78F
MINOT          CLOUDY    50  40  68 N16       29.90S
MINOT AFB      CLOUDY    48  38  69 N15       29.90S
GARRISON         N/A     51  38  60 NE13G22   29.86R
WILLISTON      CLOUDY    46  38  73 N9        30.00R
DICKINSON      LGT RAIN  47  42  83 N14       29.89R
HETTINGER      CLOUDY    50  37  61 N23G29    29.82R
$$

 *****  OTHER OBSERVATIONS NORTHEAST NORTH DAKOTA  *****

CITY           SKY/WX    TMP DP  RH WIND       PRES   REMARKS
WALHALLA       FAIR     N/A N/A N/A N13       29.90S
LANGDON        PTSUNNY   55  46  71 NE16G23   29.89S
CAVALIER       FAIR      57  50  77 N12G17    29.87S
GRAFTON        CLOUDY    59  52  77 N14       29.85S
CANDO          PTSUNNY   52  46  82 NE15G23   29.89F
FORT TOTTEN      N/A     54  45  71 NE7       29.95S
ROLLA          PTSUNNY   50  39  66 N15G22    29.91S
RUGBY          RAIN      52  43  71 NE13      29.86F
 ***** THE ABOVE OBSERVATIONS ARE NON NWS ARE NOT QUALITY
        CONTROLLED AND MAY MIS-REPORT RAIN FOR SNOW...
$$

 *****  OTHER OBSERVATIONS SOUTHEAST NORTH DAKOTA *****

CITY           SKY/WX    TMP DP  RH WIND       PRES   REMARKS
COOPERSTOWN    CLOUDY    59  50  72 NE23G32   29.77F
VALLEY CITY    CLOUDY    59  59 100 NE12G20   29.76F
OAKES          NOT AVBL
GWINNER        CLOUDY    63  63 100 NE12      29.71S FOG
SHEYENNE NWR     N/A     64  64 100 NE12      29.95S
BUFFALO          N/A     60  52  76 S13G24      N/A
WYNDMERE       NOT AVBL
 ***** THE ABOVE OBSERVATIONS ARE NON NWS ARE NOT QUALITY
       CONTROLLED AND MAY MIS-REPORT RAIN FOR SNOW...
$$

  *****  WEATHER ACROSS NORTHERN MINNESOTA  *****

CITY           SKY/WX    TMP DP  RH WIND       PRES   REMARKS
FLAG ISLAND    FAIR      63  54  72 N10       29.84R
WARROAD        FAIR      63  57  82 NE8       29.86R
ROSEAU         FAIR      61  55  82 N13       29.84R
HALLOCK          N/A     64  54  68 N17       29.82F
THF RVR FALLS  CLOUDY    63  56  78 NE14      29.82R
HALSTAD        NOT AVBL
FOSSTON        CLOUDY    66  66 100 NE3       29.80S
BAUDETTE       CLOUDY    65  63  93 NE9       29.83R
WASKISH        CLOUDY    66  64  94 E3        29.85R
CROOKSTON      FAIR      66  57  72 E14       29.80R
$$
  *****  WEATHER ACROSS CENTRAL AND WEST MINNESOTA  *****

CITY           SKY/WX    TMP DP  RH WIND       PRES   REMARKS
BEMIDJI        FAIR      71  65  80 SE8       29.82S
PARK RAPIDS    FAIR      71  65  81 SE12      29.80F
WADENA         FAIR      70  70 100 SE8       29.79S
DETROIT LAKES  CLOUDY    72  63  73 SE13      29.79S
MOORHEAD       FAIR      73  66  78 NE7       29.73F
FERGUS FALLS   FAIR      73  66  78 SE12      29.73F
ELBOW LAKE     CLOUDY    74  71  90 E14       29.75F
MORRIS MN      FAIR      77  73  88 SE14      29.74S
STAPLES        FAIR      68  68 100 SE6       29.80F
WHEATON        FAIR      75  70  83 E12       29.73S
$$
  *****  WEATHER ELSEWHERE ACROSS MINNESOTA  *****

CITY           SKY/WX    TMP DP  RH WIND       PRES   REMARKS
DULUTH         FAIR      65  63  93 E12       29.85F
INTRNTL FALLS  CLOUDY    67  62  84 NE7       29.85R
ELY            FAIR      66  61  82 W12G17    29.85R
CLOQUET        FAIR      66  63  88 E7        29.86F
BRAINERD       PTSUNNY   68  65  90 SE9       29.83R
HIBBING        FAIR      66  60  81 VRB3      29.85R
ALEXANDRIA     CLOUDY    75  70  84 SE13      29.79F
SAINT CLOUD    LGT RAIN  70  70 100 SE8       29.84S
MINNEAPOLIS    PTSUNNY   79  72  79 S8        29.85S
$$

  *****  WEATHER ACROSS SOUTH DAKOTA  *****

CITY           SKY/WX    TMP DP  RH WIND       PRES   REMARKS
SIOUX FALLS    FAIR      81  72  74 S20       29.73S
BROOKINGS      FAIR      78  71  79 S17       29.74R
WATERTOWN      FAIR      76  73  91 S20       29.71S
HURON          FAIR      79  72  79 S18G29    29.64S
SISSETON         N/A     74  73  97 SE7       29.70F
ABERDEEN       PTSUNNY   80  72  76 SE16G22   29.64F
MITCHELL       FAIR      82  71  69 S12       29.66S
PIERRE         PTSUNNY   60  57  89 SW14      29.62R
MOBRIDGE       CLOUDY    63  56  78 NE17G25   29.62S
RAPID CITY     CLOUDY    52  39  62 N23G35    29.80R
$$

  *****  SOME WEATHER IN NEARBY STATES *****

CITY           SKY/WX    TMP DP  RH WIND       PRES   REMARKS
GLASGOW MT     LGT RAIN  41  38  89 NW8       30.05R
GREAT FALLS MT LGT RAIN  35  33  92 N8        30.07R
CHEYENNE WY    FAIR      53  38  56 NE10      29.85F
SCOTTSBLUFF NE FAIR      52  40  63 W9        29.83R
OMAHA NE       FAIR      81  69  67 S18       29.84S
DES MOINES IA  FAIR      80  70  71 S13       29.94R
DAVENPORT IA   FAIR      80  69  69 S12       30.06R
CHICAGO IL     FAIR      85  67  54 SW8       30.07S
EAU CLAIRE WI  FAIR      79  70  74 S14       29.90F
LA CROSSE WI   FAIR      83  70  64 S18       29.94S
$$

  *****  SOME NATIONAL WEATHER *****

CITY           SKY/WX    TMP DP  RH WIND       PRES   REMARKS
LA GUARDIA NY  FAIR      73  51  46 N18G26    30.00F
RALEIGH NC     FAIR      81  67  62 N5        30.10R
ATLANTA GA     FAIR      80  69  69 E5        30.10R
NEW ORLEANS LA FAIR      84  72  67 VRB6      30.00R
OKLAHOMA CITY  FAIR      76  69  79 S15       29.97R
ALBUQUERQUE NM PTSUNNY   69  37  30 S9        29.99R
SALT LAKE CITY PTSUNNY   47  41  80 N5        29.89R
LOS ANGELES CA FAIR      62  53  72 NE5       29.87R
BOISE ID       LGT RAIN  42  40  92 W8        29.91R
SEATTLE WA     MOCLDY    52  47  83 SE7       30.06R
$$

*** WEATHER ACROSS MANITOBA...SASKATCHEWAN AND ONTARIO ***
                ***ONTARIO***

CITY           SKY/WX    TMP DP  RH WIND       PRES   REMARKS
GERALDTON      FOG       66  64  94 S10       29.91R VSB 1
THUNDER BAY    CLOUDY    55  55 100 W6        29.91S
SIOUX LOOKOUT  PTSUNNY   63  59  88 CALM      29.88S
TORONTO        MOSUNNY   77  61  57 E5        30.16S
BIG TROUT LK   SUNNY     59  50  72 NW9       29.83R
PICKLE LAKE    MOSUNNY   63  54  72 W3        29.86S
DRYDEN         MOSUNNY   63  59  88 VRB2      29.88R
KENORA         PTSUNNY   59  54  82 N10       29.86R
$$
                *** MANITOBA***

CITY           SKY/WX    TMP DP  RH WIND       PRES   REMARKS
BRANDON        MOSUNNY   52  41  66 NE8       29.96R
DAUPHIN        MOSUNNY   46  43  87 W5        30.01R
ISLAND LAKE    PTSUNNY   52  48  87 W9        29.91R
PILOT MOUND      N/A     54  41  62 N12G17      N/A
THE PAS        PTSUNNY   46  39  76 NW10      30.01R
THOMPSON       DRIZZLE   45  43  93 NW9       29.93R FOG
WINNIPEG       MOSUNNY   57  46  67 N15       29.91R
LYNN LAKE      CLOUDY    39  37  93 N9        30.04R
CHURCHILL      DRIZZLE   45  43  93 NE22G31   29.89R
GILLAM         DRIZZLE   46  43  87 MISG      29.86
$$
                ***SASKATCHEWAN***

CITY           SKY/WX    TMP DP  RH WIND       PRES   REMARKS
ESTEVAN        PTSUNNY   45  41  87 NW8       30.02R
KINDERSLEY     CLOUDY    39  37  93 NE8       30.07S
LLOYDMINSTER   PTSUNNY   41  39  93 N8        30.10R
PRINCE ALBERT  CLOUDY    43  37  81 NE10      30.09R
REGINA         CLOUDY    41  39  93 N9        30.03R
YORKTON        CLOUDY    43  41  93 N8        30.01R



USA.gov is the U.S. government's official web portal to all federal, state and local government web resources and services.